Regional Weather Roundup
Issued by NWS Little Rock, AR

Home | Current Version | Previous Version | Text Only | Print | Product List | Glossary On
Versions: 1 2 3 4 5 6 7 8 9 10 11 12 13 14 15 16 17 18 19 20 21 22 23 24 25 26 27 28 29 30 31 32 33 34 35 36 37 38 39 40 41 42 43 44 45 46 47 48 49 50
000
ASUS44 KLZK 260105
RWRLZK

WEATHER ROUNDUP FOR ARKANSAS
NATIONAL WEATHER SERVICE LITTLE ROCK AR
800 PM CDT TUE JUL 25 2017

NOTE: "FAIR" INDICATES FEW OR NO CLOUDS BELOW 12,000 FEET WITH NO
SIGNIFICANT WEATHER AND/OR OBSTRUCTIONS TO VISIBILITY.

ARZ001-003-010-029-260200-
NORTHWEST ARKANSAS

CITY           SKY/WX    TMP DP  RH WIND       PRES   REMARKS
FAYETTEVILLE   PTCLDY    86  74  67 SE3       30.07S HX  94
FORT SMITH     PTCLDY    91  74  57 S8        30.02R HX 100
HARRISON       CLEAR     85  69  58 S5        30.08S HX  89
BENTONVILLE    PTCLDY    88  70  55 SW6       30.08S HX  92
ROGERS         PTCLDY    88  70  55 SW6       30.08R HX  93
SILOAM SPGS    CLEAR     88  68  51 S7        30.06S HX  91
HIGHFILL       CLEAR     88  71  57 S6        30.07S HX  94
SPRINGDALE     CLEAR     90  70  51 S9        30.09R HX  95
$$

ARZ004-005-016-260200-
NORTH CENTRAL ARKANSAS

CITY           SKY/WX    TMP DP  RH WIND       PRES   REMARKS
BATESVILLE     MOCLDY    88  72  58 CALM      30.04S HX  94
FLIPPIN        CLOUDY    91  70  49 S3        30.02S HX  97
MTN HOME       MOCLDY    87  74  64 S3        30.03F HX  95
$$

ARZ040-041-260200-
WEST CENTRAL ARKANSAS

CITY           SKY/WX    TMP DP  RH WIND       PRES   REMARKS
MENA           CLEAR     88  73  62 CALM      30.09R HX  96
MOUNT IDA      CLEAR     87  68  52 CALM      30.05S HX  90
$$

ARZ009-017-025-026-028-260200-
NORTHEAST ARKANSAS

CITY           SKY/WX    TMP DP  RH WIND       PRES   REMARKS
CORNING        LGT RAIN  86  79  79 S5        30.03S HX  99
JONESBORO      CLEAR     84  78  82 CALM      30.03S HX  95
WALNUT RIDGE   CLEAR     88  75  66 S8        30.02S HX  97
BLYTHEVILLE    PTCLDY    86  78  77 SW3       30.03S HX  98
$$

ARZ022-023-033-042-044-260200-
CENTRAL ARKANSAS

CITY           SKY/WX    TMP DP  RH WIND       PRES   REMARKS
LITTLE ROCK    PTCLDY    88  77  69 S7        30.03S HX 100
N LITTLE ROCK    N/A     89  76  64 SE5       30.02S HX  99
JACKSONVILLE   PTCLDY    90  76  62 SE5       30.03S HX 102
CONWAY           N/A     91  75  59 SE9       30.01S HX 102
SEARCY         PTCLDY    86  79  79 S3        30.05R HX  99
HOT SPRINGS    CLEAR     90  73  57 SW7       30.05S HX  98
RUSSELLVILLE   PTCLDY    87  76  69 CALM      30.02R HX  97
CLINTON        FAIR      86  77  74 CALM      30.04R HX  97
$$

ARZ036-260200-
EAST ARKANSAS

CITY           SKY/WX    TMP DP  RH WIND       PRES   REMARKS
WEST MEMPHIS   CLEAR     85  79  82 SW3       30.02F HX  98
$$

ARZ050-053-066-070-073-260200-
SOUTHWEST ARKANSAS

CITY           SKY/WX    TMP DP  RH WIND       PRES   REMARKS
ARKADELPHIA    FAIR      85  78  80 W3        30.04S HX  96
CAMDEN         CLEAR     88  73  62 S3        30.05R HX  96
TEXARKANA      CLEAR     87  71  58 S5        30.05S HX  93
EL DORADO      CLEAR     87  74  64 S3        30.07R HX  95
DE QUEEN       CLEAR     89  77  67 CALM      30.02S HX 101
$$

ARZ056-057-069-260200-
SOUTHEAST ARKANSAS

CITY           SKY/WX    TMP DP  RH WIND       PRES   REMARKS
PINE BLUFF     CLEAR     89  75  63 SW5       30.04S HX  99
STUTTGART      CLEAR     91  66  43 S6        30.06R HX  94
MONTICELLO     CLEAR     89  78  70 S3        30.05F HX 103

$$





USA.gov is the U.S. government's official web portal to all federal, state and local government web resources and services.